GEFSCGP_500_meanwind_096.txt.gz
Wind_Speed
25 24 22 22 21 20 20 20 19 19 18 18 19 20 20 19 19 19 19 19 19 19 19 20 20 20 20 21 21 22 23 24 25 25 26 27 28 29 30 31 32 33 33 34
25 23 23 22 21 21 20 20 20 19 18 19 19 19 19 19 19 19 19 20 20 20 20 20 21 21 22 22 23 24 24 25 25 26 27 27 28 29 30 31 32 33 34 35
26 24 23 22 22 21 20 20 20 19 19 19 19 19 19 19 19 20 20 20 21 21 21 21 22 23 24 24 25 25 25 26 26 26 27 28 29 30 31 31 32 33 34 36
25 24 23 23 22 22 21 21 20 20 19 18 19 19 19 19 20 20 21 21 21 22 22 23 24 24 25 26 26 26 26 26 27 27 28 29 30 30 31 32 33 34 36 37
25 24 24 23 23 23 22 21 20 19 19 19 19 20 19 19 20 21 21 22 22 23 23 24 25 26 27 27 27 26 26 26 27 27 28 29 30 31 32 33 35 36 38 39
27 25 24 24 23 22 21 21 20 20 20 19 19 20 19 19 21 22 22 23 23 24 25 26 26 27 28 27 27 27 27 27 27 28 29 31 32 33 34 35 37 38 40 42
26 25 24 24 23 22 21 21 21 21 20 20 19 20 20 20 22 23 24 24 24 25 26 27 27 28 28 28 28 28 28 29 30 31 32 33 34 35 36 38 39 41 43 45
26 25 25 24 23 22 21 21 22 22 22 21 20 21 21 21 23 24 25 25 26 26 27 27 28 28 28 29 29 29 30 31 32 34 35 36 37 38 39 40 42 44 46 49
26 25 25 24 23 23 22 22 22 23 23 22 21 21 21 22 24 25 26 26 27 27 28 28 29 29 30 30 31 31 32 34 35 36 37 38 39 40 42 44 46 48 50 52
25 24 24 23 24 23 23 22 23 24 24 23 22 21 22 23 25 26 27 27 28 29 29 30 30 31 32 32 33 34 35 36 37 38 39 41 42 44 46 48 50 53 55 57
24 24 24 24 23 23 24 24 24 25 25 25 24 22 23 25 26 27 28 28 29 30 31 32 33 33 34 35 36 37 38 39 40 41 42 44 46 48 50 52 54 57 59 62
25 25 25 24 24 25 25 25 25 26 26 26 26 24 25 27 28 29 30 30 32 33 34 34 35 36 37 38 38 39 40 41 42 44 46 47 49 51 54 56 59 61 64 66
27 27 26 26 26 26 26 26 26 27 27 27 27 26 27 29 31 32 33 33 34 35 36 37 38 39 39 40 41 42 43 44 46 47 49 51 53 55 57 60 63 65 68 71
29 29 27 27 27 27 27 26 27 28 29 30 28 28 29 32 34 34 35 36 36 37 38 39 40 40 41 42 43 44 46 47 49 51 52 54 56 59 61 64 67 69 72 75
30 30 28 28 29 29 29 29 29 30 30 33 31 31 31 35 36 36 37 37 38 39 39 40 41 42 43 44 45 46 48 50 52 53 55 57 60 62 65 68 70 73 75 78
31 31 30 31 31 32 32 30 30 31 32 34 35 33 33 36 37 38 39 39 39 40 41 42 42 43 44 45 47 48 50 52 54 56 58 61 63 66 68 71 73 76 78 80
33 33 33 33 32 35 34 30 31 33 34 35 36 36 37 37 38 39 39 40 41 42 42 43 44 45 46 47 49 50 52 54 57 59 61 64 66 69 71 74 76 78 80 81
33 33 35 35 35 37 34 32 33 35 35 36 38 39 39 39 39 40 40 41 41 42 43 44 45 46 47 49 51 52 55 57 59 61 64 67 69 71 74 76 78 80 81 81
35 35 37 38 38 39 36 34 34 36 36 36 38 39 39 40 41 41 41 42 43 43 44 45 46 47 49 51 52 54 57 59 62 64 66 69 72 74 76 78 79 80 80 79
36 37 38 39 40 41 38 36 36 38 38 36 38 39 40 40 41 41 42 42 43 44 45 46 47 49 50 52 54 56 59 61 64 66 69 71 74 76 78 79 80 80 79 76
36 37 39 40 42 42 40 39 39 40 40 40 39 39 40 40 41 41 42 42 43 44 46 47 48 50 52 54 56 58 61 64 66 68 70 73 75 77 78 79 79 78 76 73
37 38 39 40 42 42 41 41 41 41 41 41 41 41 41 41 41 41 42 43 44 46 47 48 49 51 54 56 58 61 63 66 68 70 72 74 76 78 79 78 77 75 73 69
38 39 40 40 41 41 42 42 42 42 42 42 42 42 41 41 40 41 42 43 45 47 48 49 51 53 56 58 61 63 65 68 69 71 74 75 77 77 78 76 74 72 69 65
39 39 40 41 41 41 42 42 43 43 43 43 43 42 42 42 41 42 44 45 46 48 50 51 53 55 57 60 63 65 68 69 71 73 75 76 77 77 75 74 71 68 65 61
40 40 41 41 41 42 42 43 43 43 43 43 43 43 43 43 43 44 45 47 48 50 51 53 55 57 60 62 64 67 69 71 73 75 76 77 76 76 73 70 67 64 60 58
38 39 40 40 40 41 42 43 43 43 43 43 44 44 44 44 45 46 47 49 50 52 53 55 57 60 62 64 67 69 71 73 75 75 76 76 75 73 71 67 63 59 57 54

GEFSCGP_500_meanwind_102.txt.gz
Wind_Speed
33 32 29 29 29 27 26 25 24 25 23 23 23 22 21 21 21 21 21 20 20 19 19 19 19 20 20 21 21 22 22 23 23 24 25 26 26 26 27 28 28 28 29 30
34 31 30 30 29 27 26 25 25 25 24 24 23 22 21 21 21 21 21 20 20 19 19 19 20 20 21 21 22 23 23 24 25 25 26 26 27 27 28 28 28 29 30 31
34 30 30 29 28 28 26 25 25 25 25 24 24 22 21 21 21 21 20 20 19 19 20 20 20 21 22 22 23 24 24 25 26 26 26 27 27 28 28 29 30 30 31 32
32 30 29 28 28 28 27 26 25 24 25 24 24 24 21 20 21 21 20 20 20 20 20 21 21 22 23 24 24 25 26 26 26 27 27 28 28 28 29 30 31 32 33 34
30 29 29 28 27 28 27 26 25 25 25 25 23 26 23 19 19 21 21 20 20 21 21 22 23 24 24 25 25 26 27 27 27 28 28 29 30 31 31 32 33 34 35 36
31 30 29 28 27 27 25 26 26 25 26 25 22 25 24 20 19 21 21 21 21 21 22 23 24 25 26 26 27 28 28 28 29 30 30 31 32 33 34 35 36 37 38 39
32 32 30 29 28 27 26 26 25 26 26 25 22 23 24 21 20 21 21 22 22 23 24 24 25 26 27 28 29 29 29 30 31 32 33 33 34 35 36 37 38 39 40 41
33 32 30 29 28 27 27 27 26 26 25 26 22 22 22 21 23 23 22 22 23 24 25 26 27 28 29 29 30 30 31 32 33 34 35 36 37 38 39 40 40 41 42 43
33 33 31 29 28 29 27 25 25 26 26 26 24 23 21 21 23 25 24 23 24 25 26 27 28 29 30 31 32 32 33 35 36 36 37 38 39 40 41 42 43 44 45 46
32 33 30 29 29 28 26 25 25 26 26 26 24 24 24 20 23 25 26 26 26 27 27 29 30 31 32 33 34 35 36 37 37 38 39 40 41 42 43 44 45 46 48 49
29 30 29 27 27 26 26 25 26 27 27 27 26 25 25 22 23 25 26 27 27 28 29 31 32 33 34 36 37 38 39 39 40 41 42 43 44 45 45 46 48 49 51 52
28 30 29 28 27 27 27 26 26 27 27 28 27 27 25 25 26 27 28 28 29 30 32 33 34 36 37 38 39 40 41 41 42 43 44 45 46 46 47 48 50 51 53 54
29 29 29 28 27 27 27 26 26 27 28 28 28 27 26 27 28 29 29 30 31 32 34 35 37 38 39 40 41 42 43 44 44 45 45 46 47 48 49 51 52 54 55 57
30 30 28 28 28 27 26 26 27 28 28 28 27 27 28 29 30 30 31 32 33 34 36 38 39 40 41 42 43 44 44 45 46 46 47 48 49 51 52 53 55 56 58 59
31 30 29 29 30 29 27 27 28 28 28 29 27 28 28 32 33 33 34 35 36 37 38 39 41 42 43 43 44 45 46 46 47 48 50 51 52 53 54 55 57 58 60 61
32 32 31 31 30 30 30 28 28 28 28 29 30 29 29 33 35 37 37 38 38 39 40 41 42 43 43 44 45 46 47 48 50 51 52 53 54 55 56 58 59 60 62 63
33 32 32 32 32 33 32 28 29 29 29 31 32 31 33 35 36 38 39 40 40 41 41 42 43 44 45 46 47 48 49 50 51 52 53 54 55 56 58 60 61 62 63 65
33 33 33 33 34 36 30 29 29 30 30 32 33 34 35 36 37 38 39 40 41 42 43 43 44 45 46 47 48 49 50 51 52 53 54 55 57 58 59 61 62 64 66 67
35 35 35 35 35 35 32 31 30 32 32 32 34 35 37 37 39 39 40 41 42 43 44 45 45 46 47 48 49 50 51 52 53 54 55 57 58 59 61 62 64 66 68 69
36 36 36 36 36 36 33 32 32 33 33 31 34 36 38 39 39 39 41 42 43 43 44 45 46 47 48 49 50 51 52 53 54 55 56 58 59 61 62 64 66 68 70 71
35 36 36 35 36 36 33 33 33 35 34 34 35 37 38 39 39 40 41 42 43 44 45 46 47 48 48 49 50 51 52 54 55 56 57 59 61 63 64 66 68 70 72 73
34 35 36 36 37 35 33 34 35 36 37 38 38 39 39 40 40 41 42 43 44 45 46 47 48 48 49 50 51 52 53 55 56 57 59 60 62 64 66 68 70 72 74 75
34 35 35 37 37 36 36 36 37 38 39 40 40 41 41 41 42 42 43 44 45 46 47 48 48 49 50 51 52 53 54 56 57 59 61 63 64 66 68 70 72 74 75 76
36 36 36 36 36 36 37 38 39 39 40 41 42 42 42 43 43 43 44 45 46 47 47 48 49 49 50 51 53 54 56 58 59 61 63 64 66 68 70 72 74 75 75 75
37 36 36 36 36 37 37 38 39 40 41 41 42 43 43 44 44 44 45 46 46 47 48 49 49 50 51 52 54 56 58 60 61 63 64 66 68 70 72 73 74 74 74 74
35 36 35 36 36 38 38 39 40 41 42 43 43 44 44 44 45 45 46 47 47 48 48 49 50 51 53 54 56 58 60 62 63 65 67 69 71 72 73 74 74 73 73 72

GEFSCGP_500_meanwind_108.txt.gz
Wind_Speed
33 34 32 31 33 33 35 35 34 34 34 33 31 31 29 29 28 26 26 26 25 24 23 23 23 23 23 23 23 23 23 24 24 25 26 26 27 27 28 28 29 30 30 31
34 32 31 33 34 34 34 34 33 34 35 33 33 31 30 28 28 26 25 25 25 24 24 23 23 23 23 23 23 23 24 24 25 26 27 27 28 28 29 29 30 31 31 32
33 29 32 34 34 34 33 32 32 34 34 34 34 31 29 29 29 27 25 25 26 25 24 24 24 24 24 24 24 24 24 25 26 27 28 28 29 30 30 30 31 31 32 33
33 31 33 33 33 33 32 32 33 34 35 34 34 32 28 28 28 27 25 25 25 25 24 24 24 24 24 24 24 24 25 26 27 28 28 29 30 30 31 32 32 33 34 35
32 31 32 32 31 32 31 32 33 34 35 35 33 34 27 28 26 26 25 24 25 24 24 24 24 24 24 24 25 25 26 26 27 28 29 30 31 32 32 33 34 35 36 37
32 32 31 30 30 31 31 32 33 35 36 35 30 34 28 25 25 26 25 24 24 24 24 24 24 24 24 25 25 26 26 27 28 30 31 32 32 33 34 35 36 37 38 39
31 31 30 30 31 31 31 31 33 35 35 33 31 33 28 24 25 25 24 24 24 24 24 24 24 24 25 25 26 27 28 29 30 31 32 33 34 35 36 37 38 39 40 41
32 31 31 31 31 31 31 32 33 35 35 33 32 32 26 23 24 25 24 23 24 24 24 24 24 25 25 26 27 28 29 30 32 33 34 35 36 37 38 39 40 41 42 43
33 32 31 32 32 32 32 32 33 35 36 35 33 31 27 23 23 24 23 23 24 24 24 24 25 25 26 27 28 30 31 32 33 34 35 37 38 39 40 42 43 43 44 45
33 34 33 33 34 34 34 33 34 36 36 36 33 29 26 23 23 23 23 24 24 24 24 25 25 26 27 29 30 31 32 34 35 36 38 39 40 41 42 44 45 45 46 47
33 34 33 33 33 33 33 34 34 36 36 34 32 28 25 25 24 24 24 24 24 25 25 25 26 27 28 29 31 32 34 35 37 38 40 41 42 43 44 45 46 46 47 48
32 33 33 32 32 33 33 32 32 33 33 32 32 29 25 26 25 26 26 25 25 25 26 27 28 29 30 31 32 34 36 37 39 40 41 42 43 44 45 46 47 47 48 49
32 33 33 32 32 32 31 30 30 31 32 33 33 28 25 26 27 28 27 27 27 27 28 28 29 30 32 33 34 36 38 40 41 42 43 44 45 46 46 47 48 49 50 51
32 32 31 30 29 28 29 29 30 32 33 32 31 27 25 26 28 29 29 29 29 29 29 30 31 32 34 35 37 38 40 41 43 44 45 45 46 47 48 49 50 51 52 53
32 31 30 29 30 30 30 29 30 32 31 31 28 28 25 28 30 30 30 30 30 30 31 32 33 35 36 38 39 40 42 43 44 45 46 47 48 49 50 51 52 53 54 54
32 31 31 30 31 32 32 31 31 31 31 32 31 28 25 29 31 32 32 31 31 32 33 34 36 37 38 40 41 42 43 44 45 46 47 48 49 50 51 52 53 54 55 56
32 32 31 32 32 34 34 30 31 31 31 32 32 28 28 31 32 33 33 33 33 34 35 36 38 39 40 41 42 43 44 45 46 47 48 49 51 52 53 54 55 55 56 57
34 33 33 32 33 37 31 29 30 31 30 31 31 30 31 32 33 34 34 35 36 36 37 38 39 40 41 42 43 44 45 46 47 48 50 51 52 53 54 54 55 56 57 59
34 34 34 34 35 34 32 30 30 32 31 30 31 32 33 33 34 34 34 35 36 37 38 39 40 41 42 43 44 45 46 47 49 50 51 52 53 54 54 55 56 58 59 60
35 35 36 36 36 35 30 30 31 33 31 28 31 32 32 33 33 33 35 36 37 38 39 40 41 41 42 43 45 46 47 49 50 51 51 53 54 55 56 57 58 59 61 62
34 35 36 36 36 35 31 30 31 32 29 29 31 31 32 33 34 35 36 37 38 39 40 41 41 42 43 45 46 47 48 49 50 51 52 54 55 56 57 58 59 61 62 64
34 35 35 35 37 33 30 32 32 32 32 33 33 33 33 34 35 35 36 38 39 40 40 41 42 43 44 45 46 47 49 50 51 52 53 54 55 57 58 60 61 63 65 66
33 33 34 35 34 32 32 33 33 33 34 34 34 35 35 35 36 37 37 38 39 40 41 42 43 44 45 46 47 48 49 50 51 53 54 55 57 58 60 62 63 65 67 69
32 32 33 34 33 33 33 33 34 35 35 36 36 36 36 37 37 38 38 39 40 41 42 42 43 44 45 46 48 49 50 52 53 54 55 57 59 60 62 64 66 68 70 72
33 33 34 34 33 33 34 35 35 36 36 36 37 37 38 38 39 39 40 41 41 42 42 43 44 45 46 47 49 50 52 53 54 56 58 59 61 63 64 66 68 71 73 76
34 34 34 34 33 34 34 35 36 36 36 37 37 38 38 39 40 41 41 42 42 42 43 44 45 46 47 49 50 52 53 55 57 58 60 61 63 65 67 69 71 73 75 77

GEFSCGP_500_meanwind_114.txt.gz
Wind_Speed
38 37 34 33 36 36 36 36 35 35 37 38 37 35 34 36 35 34 33 33 33 33 33 33 32 32 31 31 30 30 30 29 29 29 29 29 29 29 30 30 30 31 32 32
38 36 33 36 37 37 36 36 35 35 37 39 37 35 33 35 36 35 34 34 34 34 33 33 33 33 32 31 31 31 30 30 30 30 30 30 30 30 31 31 31 32 33 33
36 33 34 36 36 35 35 35 35 36 37 39 39 34 30 33 35 34 34 34 35 34 34 34 33 33 32 32 32 31 31 31 30 30 31 31 31 32 32 32 33 33 34 34
37 35 35 36 35 34 34 34 36 36 37 38 39 37 28 31 33 33 34 34 34 35 35 34 34 34 33 33 32 32 32 31 31 31 31 32 32 32 33 33 34 35 35 36
37 35 36 35 33 34 34 35 36 37 38 38 36 39 30 29 31 32 34 34 34 35 35 34 34 33 32 32 32 32 32 32 32 32 32 32 33 33 34 34 35 36 36 37
38 37 36 35 34 35 35 36 37 38 38 38 34 37 33 28 30 31 33 33 34 34 34 33 32 32 32 32 32 32 32 32 32 32 33 33 34 34 35 35 36 37 37 38
38 36 35 34 34 35 36 36 37 38 38 37 34 35 33 29 28 30 31 32 32 32 32 31 31 31 32 32 32 32 33 33 33 33 34 35 35 36 36 37 37 38 39 40
37 36 34 34 33 34 35 36 37 38 38 36 35 34 30 28 27 28 29 30 30 31 30 30 30 31 32 32 32 33 33 33 34 34 35 36 36 36 37 38 38 39 40 41
36 36 34 34 33 34 35 36 36 38 39 38 36 33 29 27 27 28 28 28 29 30 29 29 30 31 31 32 32 33 33 34 35 35 36 36 37 37 38 39 39 40 41 42
36 36 35 35 35 35 35 35 36 37 38 38 36 32 29 26 27 27 28 29 30 30 30 30 30 31 31 31 32 33 34 35 35 36 36 37 38 39 39 40 41 42 43 44
36 36 35 35 35 34 35 35 35 36 38 37 36 32 29 27 27 27 28 29 30 30 30 30 30 31 32 32 33 34 34 35 36 37 38 39 39 40 41 42 43 44 45 46
35 36 36 35 35 35 36 35 35 36 36 36 37 33 29 29 28 29 29 30 30 30 31 31 31 31 32 32 33 34 35 36 37 38 39 40 41 41 43 44 45 46 47 48
36 37 36 35 34 33 34 34 34 35 37 37 37 32 28 27 27 29 30 30 30 30 31 31 32 32 32 33 34 35 36 37 39 40 40 41 42 43 44 46 47 47 48 49
36 37 35 33 31 31 31 31 33 35 37 36 34 30 26 27 28 30 31 31 31 31 31 32 32 32 33 34 35 36 37 39 40 41 42 43 44 44 45 46 47 48 49 50
36 35 33 32 32 32 32 33 33 34 34 34 30 29 26 27 30 31 32 32 31 31 31 32 33 34 34 35 36 38 39 40 41 42 43 44 45 45 46 48 49 50 51 52
36 35 34 33 32 33 33 33 33 32 32 31 31 29 27 29 30 31 31 32 32 32 33 33 34 34 35 36 37 38 40 41 42 43 44 45 46 47 48 49 50 51 52 53
36 35 35 34 33 35 35 31 31 31 30 31 31 28 29 31 31 31 32 33 33 34 35 35 35 35 35 36 38 39 41 41 42 44 45 46 47 48 49 50 51 52 53 54
38 37 36 36 35 37 31 29 30 31 30 31 31 30 30 31 32 32 33 34 34 34 35 35 35 36 37 38 39 40 41 42 43 44 45 47 48 49 50 51 52 53 54 55
38 37 37 37 37 35 32 29 29 30 30 30 31 31 32 33 33 33 33 34 34 34 35 35 36 37 37 38 39 40 41 42 44 45 46 47 48 49 51 52 53 55 56 57
39 38 37 37 37 35 29 28 29 31 30 28 31 32 33 34 34 32 33 34 35 35 35 36 37 37 38 39 40 41 42 43 45 46 47 48 49 51 52 54 55 56 57 58
38 38 37 35 35 33 29 28 29 31 29 29 31 32 32 33 33 34 34 35 35 35 36 37 38 38 39 40 41 42 43 44 46 47 48 49 51 52 54 55 56 58 59 60
37 36 35 35 36 31 29 30 30 30 31 31 31 31 32 33 34 35 35 35 36 36 37 38 39 39 40 40 42 43 44 45 47 48 49 51 52 54 55 57 58 60 61 62
38 36 35 35 34 32 32 31 31 31 32 32 32 32 32 33 34 34 35 36 36 37 38 38 38 39 40 42 43 44 45 46 48 49 51 52 54 55 57 58 60 61 63 65
38 38 38 36 34 33 33 32 32 32 33 33 33 33 33 33 34 35 35 36 36 37 38 38 39 40 42 43 44 45 47 48 49 50 52 54 55 56 58 60 61 63 65 67
39 38 38 37 35 35 34 34 34 34 34 34 33 34 34 34 35 35 35 36 36 37 38 39 40 42 43 44 45 46 48 49 50 52 53 55 56 58 59 61 63 65 67 70
39 38 37 37 36 36 35 35 35 35 35 35 35 35 35 35 35 36 36 37 38 38 39 40 42 43 44 45 46 48 49 50 51 53 54 56 58 59 61 63 65 67 70 72